Main page
METAR-TAF:

METAR-TAF

Airports :

Sebring Regional Airport

Sebring, Florida, United States

latitude: 27-27-23N, longitude: 081-20-33W, elevation: 62 ft

Current weather observation

The report was made 17 minutes ago, at 07:35 UTC
Wind 7 mph from the East/Northeast
Temperature 64°F
Humidity 94%
Pressure 30.11 in. Hg
Visibility: 10 miles
Broken clouds at a height of 6500 ft

METAR: KSEF 180735Z AUTO 07006KT 10SM BKN065 18/17 A3011 RMK AO2 T01830167

Time: 03:52 (07:52 UTC)


TAF: missing

Weather observations and forecasts of more than 4000 airports (METAR and TAF reports).

The available stations are represented by yellow and red dots on the map.

Hover mouse over dot to see the name of the station.

Then click to see weather observations and forecasts.

To change the map : click on the green buttons with a black cross to zoom in, on the green button with a dash to zoom out, or on the green arrows for adjacent maps.


METAR-TAF: